Date String (YYYY-MM-DD hh:mm:ss) UTC,Instrument flags,Ambient pressure (hPa),Sample flow (lpm),Bypass flow (lpm),Sample temperature (°C),Ambient temperature (°C),ASC tube jacket temperature (°C),LED temperature (°C),Box temperature (°C),Sample RH (%),Span deviation,Mass concentration (μg/m³),Mass concentration (μg/m³),Mass concentration (μg/m³)
DateTimeUTC,F1_M11,P_M11,Q1_M11,Q2_M11,T1_M11,T2_M11,T3_M11,T4_M11,T5_M11,U1_M11,ZSPAN_M11,X0_M11,X2_M11,X1_M11
2022-03-24 00:00:00,,0825.3,5.00,0.00,24.5,23.5,00.0,33.4,26.3,05.7,0000.0,0001.95,0001.02,0000.73
2022-03-24 00:01:00,,0825.3,5.00,0.00,24.5,23.6,00.0,33.4,26.3,05.7,0000.0,0002.18,0001.10,0000.74
2022-03-24 00:02:00,,0825.3,4.99,0.00,24.5,23.7,00.0,33.4,26.3,05.7,0000.0,0002.27,0001.13,0000.75
2022-03-24 00:03:00,,0825.3,5.00,0.00,24.5,23.8,00.0,33.4,26.4,05.8,0000.0,0002.28,0001.14,0000.77
2022-03-24 00:04:00,,0825.3,5.00,0.00,24.6,23.9,00.0,33.4,26.4,05.8,0000.0,0002.25,0001.14,0000.78
2022-03-24 00:05:00,,0825.3,5.00,0.00,24.6,23.9,00.0,33.4,26.4,05.8,0000.0,0002.24,0001.14,0000.79
2022-03-24 00:06:00,,0825.3,4.99,0.00,24.6,23.9,00.0,33.4,26.5,05.9,0000.0,0002.24,0001.14,0000.78
2022-03-24 00:07:00,,0825.3,5.01,0.00,24.6,23.9,00.0,33.4,26.5,06.1,0000.0,0002.93,0001.16,0000.78
2022-03-24 00:08:00,,0825.3,5.00,0.00,24.6,23.9,00.0,33.4,26.5,05.8,0000.0,0003.08,0001.19,0000.78
2022-03-24 00:09:00,,0825.3,5.00,0.00,24.6,23.8,00.0,33.4,26.4,05.7,0000.0,0003.14,0001.21,0000.77
2022-03-24 00:10:00,,0825.3,4.99,0.00,24.6,23.8,00.0,33.5,26.4,05.7,0000.0,0003.29,0001.28,0000.77
2022-03-24 00:11:00,,0825.3,5.00,0.00,24.6,23.9,00.0,33.5,26.4,05.7,0000.0,0003.15,0001.26,0000.76
2022-03-24 00:12:00,,0825.3,4.99,0.00,24.6,23.8,00.0,33.5,26.4,05.8,0000.0,0003.06,0001.22,0000.75
2022-03-24 00:13:00,,0825.3,5.00,0.00,24.6,23.9,00.0,33.5,26.5,05.9,0000.0,0003.92,0001.29,0000.75
2022-03-24 00:14:00,,0825.3,5.01,0.00,24.6,23.9,00.0,33.5,26.5,05.9,0000.0,0004.82,0001.39,0000.75
2022-03-24 00:15:00,,0825.3,4.99,0.00,24.6,23.9,00.0,33.5,26.5,05.8,0000.0,0004.96,0001.43,0000.75
2022-03-24 00:16:00,,0825.3,4.99,0.00,24.7,24.0,00.0,33.5,26.5,05.6,0000.0,0006.78,0001.60,0000.76
2022-03-24 00:17:00,,0825.3,5.00,0.00,24.7,24.0,00.0,33.5,26.5,05.9,0000.0,0013.23,0002.29,0000.81
2022-03-24 00:18:00,,0825.3,5.00,0.00,24.7,24.0,00.0,33.5,26.5,05.9,0000.0,0013.24,0002.36,0000.81
2022-03-24 00:19:00,,0825.3,5.01,0.00,24.7,24.0,00.0,33.5,26.5,05.8,0000.0,0013.32,0002.33,0000.79
2022-03-24 00:20:00,,0825.4,5.00,0.00,24.7,24.0,00.0,33.6,26.6,05.5,0000.0,0013.30,0002.32,0000.78
2022-03-24 00:21:00,,0825.3,5.00,0.00,24.7,24.0,00.0,33.6,26.6,05.5,0000.0,0013.17,0002.22,0000.76
2022-03-24 00:22:00,,0825.3,5.00,0.00,24.8,24.0,00.0,33.6,26.6,05.5,0000.0,0013.18,0002.22,0000.76
2022-03-24 00:23:00,,0825.3,5.00,0.00,24.8,24.0,00.0,33.6,26.6,05.5,0000.0,0013.21,0002.23,0000.75
2022-03-24 00:24:00,,0825.3,4.99,0.00,24.8,24.0,00.0,33.6,26.7,05.5,0000.0,0012.93,0002.15,0000.75
2022-03-24 00:25:00,,0825.3,5.00,0.00,24.8,24.0,00.0,33.6,26.7,05.5,0000.0,0012.28,0002.04,0000.73
2022-03-24 00:26:00,,0825.3,5.01,0.00,24.8,24.1,00.0,33.6,26.7,05.5,0000.0,0012.14,0001.96,0000.71
2022-03-24 00:27:00,,0825.3,4.99,0.00,24.8,24.1,00.0,33.6,26.7,05.5,0000.0,0011.92,0001.92,0000.69
2022-03-24 00:28:00,,0825.3,5.00,0.00,24.8,24.1,00.0,33.6,26.7,05.5,0000.0,0005.07,0001.25,0000.64
2022-03-24 00:29:00,,0825.3,5.00,0.00,24.9,24.1,00.0,33.7,26.7,05.4,0000.0,0002.14,0001.00,0000.62
2022-03-24 00:30:00,,0825.3,4.99,0.00,24.9,24.1,00.0,33.7,26.7,05.6,0000.0,0001.87,0001.04,0000.62
2022-03-24 00:31:00,,0825.3,5.00,0.00,24.9,24.2,00.0,33.7,26.7,05.5,0000.0,0001.77,0001.01,0000.62
2022-03-24 00:32:00,,0825.3,5.00,0.00,24.9,24.2,00.0,33.7,26.7,05.5,0000.0,0001.86,0001.06,0000.63
2022-03-24 00:33:00,,0825.4,5.00,0.00,24.9,24.2,00.0,33.7,26.8,05.5,0000.0,0001.84,0001.04,0000.62
2022-03-24 00:34:00,,0825.4,5.00,0.00,24.9,24.2,00.0,33.7,26.8,05.6,0000.0,0002.85,0001.03,0000.62
2022-03-24 00:35:00,,0825.4,5.00,0.00,25.0,24.2,00.0,33.7,26.8,05.5,0000.0,0003.08,0001.05,0000.62
2022-03-24 00:36:00,,0825.4,5.00,0.00,25.0,24.2,00.0,33.8,26.8,05.4,0000.0,0003.05,0001.05,0000.63
2022-03-24 00:37:00,,0825.4,5.01,0.00,25.0,24.2,00.0,33.8,26.9,05.4,0000.0,0003.09,0001.07,0000.64
2022-03-24 00:38:00,,0825.4,4.99,0.00,25.0,24.2,00.0,33.8,26.9,05.5,0000.0,0003.17,0001.09,0000.63
2022-03-24 00:39:00,,0825.4,5.00,0.00,25.0,24.3,00.0,33.8,26.9,05.5,0000.0,0003.30,0001.12,0000.64
2022-03-24 00:40:00,,0825.4,5.00,0.00,25.0,24.3,00.0,33.8,26.9,05.5,0000.0,0003.42,0001.16,0000.65
2022-03-24 00:41:00,,0825.4,5.00,0.00,25.0,24.3,00.0,33.8,26.9,05.5,0000.0,0003.34,0001.11,0000.65
2022-03-24 00:42:00,,0825.4,4.99,0.00,25.1,24.3,00.0,33.8,27.0,05.5,0000.0,0003.39,0001.13,0000.67
2022-03-24 00:43:00,,0825.4,5.00,0.00,25.1,24.3,00.0,33.9,26.9,05.5,0000.0,0003.37,0001.11,0000.66
2022-03-24 00:44:00,,0825.4,5.00,0.00,25.1,24.3,00.0,33.9,26.9,05.5,0000.0,0003.44,0001.14,0000.67
2022-03-24 00:45:00,,0825.4,5.02,0.00,25.1,24.3,00.0,33.9,27.0,05.5,0000.0,0002.86,0001.16,0000.69
2022-03-24 00:46:00,,0825.4,4.99,0.00,25.1,24.3,00.0,33.9,27.0,05.5,0000.0,0002.18,0001.17,0000.69
2022-03-24 00:47:00,,0825.4,4.99,0.00,25.1,24.4,00.0,33.9,27.0,05.5,0000.0,0002.26,0001.19,0000.69
2022-03-24 00:48:00,,0825.4,5.01,0.00,25.1,24.4,00.0,33.9,27.0,05.6,0000.0,0002.39,0001.23,0000.70
2022-03-24 00:49:00,,0825.4,5.01,0.00,25.2,24.4,00.0,33.9,27.0,05.7,0000.0,0002.40,0001.25,0000.72
2022-03-24 00:50:00,,0825.4,4.99,0.00,25.2,24.4,00.0,34.0,27.0,05.8,0000.0,0002.27,0001.22,0000.72
2022-03-24 00:51:00,,0825.4,4.99,0.00,25.2,24.4,00.0,34.0,27.0,05.9,0000.0,0002.15,0001.19,0000.72
2022-03-24 00:52:00,,0825.4,5.00,0.00,25.2,24.4,00.0,34.0,27.0,05.9,0000.0,0003.01,0001.22,0000.73
2022-03-24 00:53:00,,0825.4,5.01,0.00,25.2,24.4,00.0,34.0,27.0,05.9,0000.0,0003.37,0001.24,0000.74
2022-03-24 00:54:00,,0825.4,5.00,0.00,25.2,24.4,00.0,34.0,27.0,05.9,0000.0,0003.39,0001.25,0000.74
2022-03-24 00:55:00,,0825.4,5.00,0.00,25.2,24.5,00.0,34.0,27.0,05.8,0000.0,0003.53,0001.31,0000.76
2022-03-24 00:56:00,,0825.4,5.00,0.00,25.2,24.5,00.0,34.0,27.0,05.8,0000.0,0003.48,0001.30,0000.76
2022-03-24 00:57:00,,0825.5,5.00,0.00,25.2,24.5,00.0,34.0,27.0,05.8,0000.0,0003.56,0001.31,0000.77
2022-03-24 00:58:00,,0825.5,5.00,0.00,25.2,24.5,00.0,34.1,27.0,05.7,0000.0,0003.65,0001.34,0000.79
2022-03-24 00:59:00,,0825.4,5.00,0.00,25.2,24.5,00.0,34.1,27.0,05.7,0000.0,0003.62,0001.32,0000.80
